Location: Brabourne
(51.1333°N, 1.0000°E)
Time: 04:38:17
(UTC+00:00)

Cosmos 1825 Rocket - Visible Passes

Search period start: 17 October 2021 00:00
Search period end: 27 October 2021 00:00
Orbit: 603 x 631 km, 82.5° (Epoch: 16 October)

Date Brightness Start Highest point End Pass type
(mag) Time Alt. Az. Time Alt. Az. Time Alt. Az.
17 Oct 4.9 19:26:26 10° N 19:28:44 28° NNE 19:28:44 28° NNE visible
17 Oct 6.5 21:04:58 10° NW 21:05:51 14° NW 21:05:51 14° NW visible
18 Oct 5.5 18:07:13 10° NE 18:08:28 12° NE 18:08:28 12° NE visible
18 Oct 4.8 19:43:07 10° N 19:45:35 33° N 19:45:35 33° N visible
19 Oct 5.1 18:22:54 10° NNE 18:25:22 18° NE 18:25:22 18° NE visible
19 Oct 5.0 19:59:58 10° NNW 20:02:30 33° NNW 20:02:30 33° NNW visible
20 Oct 4.5 18:39:12 10° N 18:42:19 28° NE 18:42:19 28° NE visible
20 Oct 5.5 20:16:58 10° NNW 20:19:27 26° NW 20:19:27 26° NW visible
21 Oct 3.9 18:55:43 10° N 18:59:19 44° NE 18:59:19 44° NE visible
21 Oct 6.1 20:34:14 10° NW 20:36:27 19° WNW 20:36:27 19° WNW visible
22 Oct 5.4 17:36:31 10° NE 17:38:09 12° ENE 17:39:16 11° ENE visible
22 Oct 3.5 19:12:23 10° N 19:16:25 74° NNE 19:16:25 74° NNE visible
22 Oct 6.6 20:52:08 10° WNW 20:53:33 12° WNW 20:53:33 12° WNW visible
23 Oct 4.9 17:52:11 10° NNE 17:55:16 19° ENE 17:56:26 17° E visible
23 Oct 4.0 19:29:13 10° NNW 19:33:30 57° W 19:33:35 57° WSW visible
24 Oct 4.3 18:08:27 10° N 18:12:16 29° ENE 18:13:46 23° ESE visible
24 Oct 5.1 19:46:14 10° NNW 19:50:08 33° W 19:50:55 31° WSW visible
25 Oct 3.7 18:24:58 10° N 18:29:11 48° ENE 18:31:17 26° SE visible
25 Oct 6.0 20:03:29 10° NW 20:06:41 20° W 20:08:28 16° WSW visible
26 Oct 3.4 18:41:39 10° N 18:46:01 82° E 18:49:09 18° SSE visible
26 Oct 6.6 20:21:23 10° WNW 20:23:10 12° W 20:24:57 10° WSW visible
